Date String (YYYY-MM-DD hh:mm:ss) UTC,Instrument flags,Ambient pressure (hPa),Sample flow (lpm),Bypass flow (lpm),Sample temperature (°C),Ambient temperature (°C),ASC tube jacket temperature (°C),LED temperature (°C),Box temperature (°C),Sample RH (%),Span deviation,Mass concentration (μg/m³),Mass concentration (μg/m³),Mass concentration (μg/m³)
DateTimeUTC,F1_M11,P_M11,Q1_M11,Q2_M11,T1_M11,T2_M11,T3_M11,T4_M11,T5_M11,U1_M11,ZSPAN_M11,X0_M11,X2_M11,X1_M11
2022-08-08 15:00:00,,0833.0,5.00,0.00,31.6,28.7,00.0,39.6,32.3,33.0,0000.0,0009.89,0004.93,0004.45
2022-08-08 15:01:00,,0833.0,5.00,0.00,31.6,28.8,00.0,39.6,32.3,33.7,0000.0,0010.15,0004.94,0004.45
2022-08-08 15:02:00,,0833.0,5.00,0.00,31.6,28.9,00.0,39.7,32.4,33.7,0000.0,0010.91,0004.97,0004.45
2022-08-08 15:03:00,,0833.0,4.99,0.00,31.6,29.0,00.0,39.7,32.4,33.9,0000.0,0010.93,0004.99,0004.45
2022-08-08 15:04:00,,0833.0,5.00,0.00,31.6,28.8,00.0,39.7,32.3,33.8,0000.0,0010.93,0004.98,0004.46
2022-08-08 15:05:00,,0833.0,5.01,0.00,31.5,28.2,00.0,39.7,32.1,34.2,0000.0,0011.31,0004.99,0004.47
2022-08-08 15:06:00,,0832.9,5.01,0.00,31.4,27.9,00.0,39.7,32.0,34.8,0000.0,0011.57,0005.00,0004.49
2022-08-08 15:07:00,,0833.0,5.01,0.00,31.4,27.8,00.0,39.7,32.0,34.6,0000.0,0014.75,0005.04,0004.52
2022-08-08 15:08:00,,0832.9,4.98,0.00,31.3,27.9,00.0,39.6,32.0,35.4,0000.0,0018.80,0005.17,0004.54
2022-08-08 15:09:00,,0832.8,5.00,0.00,31.4,28.0,00.0,39.6,32.1,35.8,0000.0,0019.67,0005.27,0004.56
2022-08-08 15:10:00,,0833.0,5.00,0.00,31.6,28.1,00.0,39.6,32.3,34.5,0000.0,0019.44,0005.22,0004.55
2022-08-08 15:11:00,,0833.0,5.00,0.00,31.8,28.3,00.0,39.6,32.4,34.0,0000.0,0019.36,0005.20,0004.55
2022-08-08 15:12:00,,0833.0,4.99,0.00,31.9,28.5,00.0,39.7,32.4,33.9,0000.0,0019.06,0005.15,0004.51
2022-08-08 15:13:00,,0832.9,5.00,0.00,31.9,28.6,00.0,39.7,32.4,34.8,0000.0,0018.27,0005.12,0004.48
2022-08-08 15:14:00,,0832.9,5.01,0.00,32.0,28.7,00.0,39.8,32.4,34.8,0000.0,0018.42,0005.19,0004.52
2022-08-08 15:15:00,,0832.8,5.00,0.00,32.1,28.9,00.0,39.8,32.5,34.6,0000.0,0018.55,0005.24,0004.54
2022-08-08 15:16:00,,0832.8,4.99,0.00,32.2,28.8,00.0,39.9,32.5,34.9,0000.0,0018.20,0005.25,0004.54
2022-08-08 15:17:00,,0832.8,5.01,0.00,32.2,28.4,00.0,39.9,32.3,34.9,0000.0,0017.76,0005.24,0004.54
2022-08-08 15:18:00,,0832.8,5.00,0.00,32.2,28.0,00.0,39.9,32.2,35.3,0000.0,0014.53,0005.21,0004.54
2022-08-08 15:19:00,,0832.8,4.99,0.00,32.3,27.8,00.0,39.9,32.3,34.1,0000.0,0011.06,0005.12,0004.54
2022-08-08 15:20:00,,0832.8,5.02,0.00,32.2,27.9,00.0,39.9,32.3,34.2,0000.0,0010.47,0005.09,0004.57
2022-08-08 15:21:00,,0832.9,5.00,0.00,32.2,28.0,00.0,39.9,32.2,34.3,0000.0,0010.59,0005.16,0004.61
2022-08-08 15:22:00,,0832.8,4.98,0.00,32.2,28.2,00.0,40.0,32.3,34.3,0000.0,0010.74,0005.23,0004.66
2022-08-08 15:23:00,,0832.8,4.99,0.00,32.1,28.3,00.0,40.0,32.3,34.8,0000.0,0010.79,0005.31,0004.74
2022-08-08 15:24:00,,0832.8,5.02,0.00,32.1,28.5,00.0,40.0,32.4,35.5,0000.0,0010.87,0005.40,0004.81
2022-08-08 15:25:00,,0832.9,4.99,0.00,32.3,28.6,00.0,40.0,32.6,34.4,0000.0,0010.90,0005.35,0004.79
2022-08-08 15:26:00,,0832.8,5.00,0.00,32.3,28.8,00.0,40.1,32.6,34.1,0000.0,0010.85,0005.30,0004.76
2022-08-08 15:27:00,,0832.9,5.00,0.00,32.3,28.9,00.0,40.1,32.6,34.3,0000.0,0010.84,0005.29,0004.77
2022-08-08 15:28:00,,0832.8,5.00,0.00,32.3,29.0,00.0,40.1,32.6,33.8,0000.0,0010.87,0005.31,0004.78
2022-08-08 15:29:00,,0832.8,5.01,0.00,32.3,28.5,00.0,40.1,32.4,33.7,0000.0,0010.27,0005.33,0004.79
2022-08-08 15:30:00,,0832.8,5.00,0.00,32.2,27.9,00.0,40.1,32.3,34.0,0000.0,0009.05,0005.32,0004.80
2022-08-08 15:31:00,,0832.9,5.01,0.00,32.1,27.8,00.0,40.1,32.3,34.0,0000.0,0009.73,0005.33,0004.79
2022-08-08 15:32:00,,0832.8,4.99,0.00,31.9,27.8,00.0,40.1,32.2,34.4,0000.0,0009.72,0005.33,0004.79
2022-08-08 15:33:00,,0832.8,5.01,0.00,31.8,27.9,00.0,40.1,32.2,34.7,0000.0,0009.67,0005.33,0004.80
2022-08-08 15:34:00,,0832.8,5.00,0.00,31.7,28.1,00.0,40.1,32.2,34.4,0000.0,0009.76,0005.35,0004.83
2022-08-08 15:35:00,,0832.7,5.01,0.00,31.7,28.2,00.0,40.1,32.2,34.8,0000.0,0009.77,0005.35,0004.86
2022-08-08 15:36:00,,0832.8,4.99,0.00,31.7,28.4,00.0,40.0,32.3,35.3,0000.0,0009.65,0005.37,0004.89
2022-08-08 15:37:00,,0832.7,5.01,0.00,31.8,28.5,00.0,40.0,32.5,35.6,0000.0,0009.65,0005.41,0004.92
2022-08-08 15:38:00,,0832.8,4.99,0.00,32.1,28.7,00.0,40.0,32.6,34.4,0000.0,0010.02,0005.45,0004.94
2022-08-08 15:39:00,,0832.8,5.01,0.00,32.3,28.8,00.0,40.0,32.7,33.9,0000.0,0010.02,0005.45,0004.94
2022-08-08 15:40:00,,0832.8,5.00,0.00,32.4,28.4,00.0,40.0,32.5,34.2,0000.0,0010.01,0005.45,0004.93
2022-08-08 15:41:00,,0832.8,5.00,0.00,32.3,27.9,00.0,40.0,32.3,33.5,0000.1,0010.12,0005.53,0004.95
2022-08-08 15:42:00,,0832.8,4.99,0.00,32.3,27.6,00.0,40.0,32.2,33.5,0000.0,0009.12,0005.52,0004.95
2022-08-08 15:43:00,,0832.8,5.02,0.00,32.1,27.6,00.0,40.0,32.1,34.2,0000.3,0009.18,0005.53,0004.94
2022-08-08 15:44:00,,0832.8,4.99,0.00,32.0,27.8,00.0,40.0,32.1,34.5,0000.2,0009.25,0005.53,0004.91
2022-08-08 15:45:00,,0832.8,5.00,0.00,31.9,27.9,00.0,40.0,32.1,34.5,-000.0,0009.15,0005.50,0004.88
2022-08-08 15:46:00,,0832.8,5.01,0.00,31.9,28.1,00.0,40.1,32.2,34.5,-000.1,0009.09,0005.48,0004.86
2022-08-08 15:47:00,,0832.8,4.99,0.00,31.8,28.3,00.0,40.0,32.2,34.8,0000.0,0009.11,0005.46,0004.84
2022-08-08 15:48:00,,0832.8,5.01,0.00,31.8,28.4,00.0,40.0,32.3,34.1,0000.0,0009.04,0005.40,0004.79
2022-08-08 15:49:00,,0832.7,5.01,0.00,31.7,28.5,00.0,40.0,32.3,33.3,0000.0,0008.57,0005.29,0004.72
2022-08-08 15:50:00,,0832.8,5.00,0.00,31.7,28.7,00.0,40.0,32.4,32.9,0000.0,0008.50,0005.21,0004.64
2022-08-08 15:51:00,,0832.8,4.99,0.00,31.7,28.8,00.0,40.0,32.4,33.2,0000.0,0008.54,0005.17,0004.59
2022-08-08 15:52:00,,0832.7,5.01,0.00,31.6,28.8,00.0,40.0,32.4,33.4,0000.0,0008.45,0005.10,0004.55
2022-08-08 15:53:00,,0832.7,4.99,0.00,31.6,28.4,00.0,40.0,32.3,33.6,0000.0,0008.40,0005.07,0004.53
2022-08-08 15:54:00,,0832.8,5.00,0.00,31.5,27.8,00.0,39.9,32.1,33.9,0000.0,0008.43,0005.03,0004.51
2022-08-08 15:55:00,,0832.8,5.00,0.00,31.4,27.6,00.0,39.9,32.1,34.4,0000.0,0008.55,0004.97,0004.48
2022-08-08 15:56:00,,0832.7,5.01,0.00,31.3,27.7,00.0,39.8,32.0,34.3,0000.0,0008.73,0004.95,0004.47
2022-08-08 15:57:00,,0832.7,5.00,0.00,31.2,27.8,00.0,39.8,32.0,35.2,0000.0,0009.01,0004.92,0004.44
2022-08-08 15:58:00,,0832.7,4.99,0.00,31.2,28.0,00.0,39.8,32.1,35.5,0000.0,0008.94,0004.90,0004.43
2022-08-08 15:59:00,,0832.8,4.99,0.00,31.5,28.1,00.0,39.7,32.3,34.6,0000.0,0008.81,0004.89,0004.45
